EW5807 Weather Reports


Display with metric or nautical units.
time (UTC)temp
F
wind
direction
speed
MPH
gust
MPH
rain 1hr
in
rain 24hr
in
rain mn
in
humidity
%
barometer
mb
20260505060037 49 216 7.0 15.0 0.00 0.00 0.00 65 1004.1
20260505054534 50 214 6.0 15.0 0.00 0.00 0.00 63 1004.1
20260505053031 51 182 7.0 12.0 0.00 0.00 0.00 61 1004.2
20260505051526 51 203 3.0 10.0 0.00 0.00 0.00 61 1004.5
20260505041558 51 198 7.0 16.0 0.00 0.00 0.00 60 1003.7
20260505040053 52 203 9.0 15.0 0.00 0.00 0.00 59 1003.6
20260505034537 53 162 8.0 16.0 0.00 0.00 0.00 56 1003.2
20260505033037 54 181 9.0 20.0 0.00 0.00 0.00 56 1003.0
20260505031540 54 214 7.0 15.0 0.00 0.00 0.00 55 1002.9
20260505030036 54 202 9.0 17.0 0.00 0.00 0.00 56 1002.8
20260505024558 55 190 9.0 14.0 0.00 0.00 0.00 54 1002.5
20260505023055 55 212 8.0 18.0 0.00 0.00 0.00 53 1002.2
20260505021525 56 242 11.0 17.0 0.00 0.00 0.00 51 1001.9
20260505020020 57 171 8.0 16.0 0.00 0.00 0.00 50 1001.7
20260505014513 58 194 10.0 17.0 0.00 0.00 0.00 48 1001.3
20260505013013 60 212 7.0 12.0 0.00 0.00 0.00 45 1001.0
20260505011510 59 211 8.0 14.0 0.00 0.00 0.00 47 1000.8
20260505010005 59 238 6.0 14.0 0.00 0.00 0.00 46 1000.5
20260505004600 60 204 8.0 13.0 0.00 0.00 0.00 44 1000.4
20260505003100 60 269 8.0 13.0 0.00 0.00 0.00 46 1000.8
20260505001628 59 227 8.0 14.0 0.00 0.00 0.00 47 1001.0
20260505000137 59 221 8.0 16.0 0.00 0.00 0.00 47 1000.8
20260504234611 60 184 10.0 17.0 0.00 0.00 0.00 45 1000.8
20260504233105 61 225 11.0 19.0 0.00 0.00 0.00 43 1000.4
20260504231553 59 200 11.0 20.0 0.00 0.00 0.00 44 1000.4
20260504230052 58 222 12.0 25.0 0.00 0.00 0.00 49 1000.3
20260504224521 60 229 16.0 25.0 0.00 0.00 0.00 40 1000.3
20260504223019 63 214 22.0 32.0 0.00 0.00 0.00 36 1000.1
20260504221542 67 195 5.0 8.0 0.00 0.00 0.00 29 1000.0
20260504220040 69 351 4.0 7.0 0.00 0.00 0.00 24 999.7
20260504214512 70 311 4.0 12.0 0.00 0.00 0.00 22 999.9
20260504213031 71 14 2.0 9.0 0.00 0.00 0.00 22 1000.2
20260504211511 70 91 0.0 11.0 0.00 0.00 0.00 24 1000.3
20260504210003 72 64 2.0 13.0 0.00 0.00 0.00 21 1000.4
20260504204603 72 333 2.0 7.0 0.00 0.00 0.00 23 1000.5
20260504203120 71 343 4.0 10.0 0.00 0.00 0.00 24 1000.8
20260504201555 70 309 1.0 7.0 0.00 0.00 0.00 25 1001.2
20260504200022 69 326 1.0 9.0 0.00 0.00 0.00 25 1001.4
20260504194521 70 23 5.0 11.0 0.00 0.00 0.00 26 1001.7
20260504193056 68 243 2.0 11.0 0.00 0.00 0.00 27 1002.1
20260504191544 68 315 5.0 11.0 0.00 0.00 0.00 26 1002.3
20260504190041 68 152 0.0 7.0 0.00 0.00 0.00 27 1002.6
20260504184533 68 252 4.0 10.0 0.00 0.00 0.00 26 1002.9
20260504183028 66 56 1.0 6.0 0.00 0.00 0.00 28 1003.4
20260504181524 66 180 0.0 7.0 0.00 0.00 0.00 29 1003.5
20260504180018 65 72 0.0 6.0 0.00 0.00 0.00 29 1003.7
20260504174513 65 304 2.0 6.0 0.00 0.00 0.00 29 1003.8
20260504173017 64 245 4.0 8.0 0.00 0.00 0.00 31 1003.9
20260504171504 64 221 6.0 11.0 0.00 0.00 0.00 31 1004.1
20260504140109 46 53 0.0 2.0 0.00 0.00 0.00 56 1005.1
20260504100105 42 134 0.0 1.0 0.00 0.00 0.00 54 1004.8
20260504090118 48 205 3.0 6.0 0.00 0.00 0.00 47 1005.4
20260504081551 43 321 0.0 4.0 0.00 0.00 0.00 52 1005.4